metlocid,date_time,avg_icesurf,std_icesurf,min_icesurf,max_icesurf,n_icesurf,n_comments
TARM,1/24/04,1.965600011,1.953393861,-3.5,4.16,50,0
TARM,1/25/04,-2.262499994,1.661301327,-5.25,0.76,96,0
TARM,1/26/04,-1.992187501,2.823024567,-6.21,2.4,96,0
TARM,1/27/04,-4.153333352,2.955249996,-9.55,1.41,96,0
TARM,1/28/04,-2.017916664,4.498329491,-9.06,4.9,96,0
TARM,1/29/04,-2.077916663,4.278475115,-9,2.82,96,0
TARM,1/30/04,-1.996041673,4.198359705,-8.56,3.31,96,0
TARM,1/31/04,-2.749687483,4.067066022,-9.18,2.84,96,0
TARM,2/1/04,-3.849999981,3.36478135,-8.8,0.93,96,0
TARM,2/2/04,-4.316875025,3.730805582,-9.94,0.74,96,0
TARM,2/3/04,-3.397708345,3.806613782,-8.94,3.32,96,0
TARM,2/4/04,-5.121979173,3.282011144,-10.14,0.87,96,0
TARM,2/5/04,-5.757604165,3.945139781,-11.54,-0.24,96,0
TARM,2/6/04,-4.670312488,3.175655577,-9.97,1,96,0
TARM,2/7/04,-3.83302083,3.07699448,-7.66,2.21,96,0
TARM,2/8/04,-4.375937499,2.549841927,-7.45,1.26,96,0
TARM,2/9/04,-3.818124978,2.851604634,-7.91,0.74,96,0
TARM,2/10/04,-5.22041667,1.309673257,-7.63,-1.86,96,0
TARM,2/11/04,-6.9460417,2.118766536,-10.29,-0.23,96,0
TARM,2/12/04,-8.095208394,3.458899452,-13.24,-2.51,96,0
TARM,2/13/04,-8.369583365,4.094418273,-14.02,-1.81,96,0
TARM,2/14/04,-8.518020817,3.697119121,-13.55,-1.82,96,0
TARM,2/15/04,-8.76166667,3.707509469,-14.39,-3.9,96,0
TARM,2/16/04,-9.825104167,1.996006001,-12.94,-5.46,96,0
TARM,2/17/04,-9.738958299,3.151575519,-14.05,-3.81,96,0
TARM,2/18/04,-9.675833285,3.991138765,-15.25,-4.46,96,0
TARM,2/19/04,-9.305416681,4.456095029,-15.68,-3.1,96,0
TARM,2/20/04,-9.767708307,3.838779212,-14.92,-3.67,96,0
TARM,2/21/04,-8.831770827,3.302222836,-13.65,-3.42,96,0
TARM,2/22/04,-9.143749987,3.093724798,-13.59,-4.61,96,0
TARM,2/23/04,-4.823958341,2.992320168,-8.53,0.28,96,0
TARM,2/24/04,-7.304583336,1.373390694,-9.57,-4.91,96,0
TARM,2/25/04,-11.03364582,2.833093586,-17.34,-5.53,96,0
TARM,2/26/04,-11.1484375,5.012403423,-17.44,-1.65,96,0
TARM,2/27/04,-10.77208331,6.388184954,-18.01,3.15,96,0
TARM,2/28/04,-8.413645821,5.221405726,-15.09,5,96,0
TARM,2/29/04,-11.17760418,4.642738932,-18.92,-1.84,96,0
TARM,3/1/04,-12.40072919,6.718011847,-19.7,0.04,96,0
TARM,3/2/04,-13.54541658,4.568897759,-19.38,-4.12,96,0
TARM,3/3/04,-14.84999998,2.977139178,-19.86,-10.12,96,0
TARM,3/4/04,-14.72072917,4.18521945,-20.19,-5.55,96,0
TARM,3/5/04,-15.03572912,5.704444701,-21.48,-4.52,96,0
TARM,3/6/04,-15.93312506,5.000777502,-21.42,-7.11,96,0
TARM,3/7/04,-17.92770831,5.674272746,-23.88,-6.99,96,0
TARM,3/8/04,-19.73364594,3.035070521,-23.35,-12.13,96,0
TARM,3/9/04,-19.2585417,4.582102087,-24.49,-11.69,96,0
TARM,3/10/04,-20.07208332,5.026542976,-26.13,-9.91,96,0
TARM,3/11/04,-21.95374996,5.118675173,-27.04,-11.6,96,0
TARM,3/12/04,-23.50416664,4.203938982,-28.71,-15.76,96,0
TARM,3/13/04,-22.33072911,4.057074039,-26.5,-13.75,96,0
TARM,3/14/04,-23.86333328,4.134096909,-28.2,-16.46,96,0
TARM,3/15/04,-24.5188542,4.030263442,-28.87,-16.15,96,0
TARM,3/16/04,-25.44458342,3.926297984,-29.55,-17.53,96,0
TARM,3/17/04,-23.94614587,3.595956893,-29.44,-18.11,96,0
TARM,3/18/04,-22.10322917,3.247021751,-26.37,-14.87,96,0
TARM,3/19/04,-23.52656252,3.090074659,-27.35,-15.71,96,0
TARM,3/20/04,-18.32791673,3.818083638,-23.27,-12.26,96,0
TARM,3/21/04,-15.76250003,2.031536686,-19.97,-11.03,96,0
TARM,3/22/04,-20.03031252,2.248815656,-23.59,-16.75,96,0
TARM,3/23/04,-20.0596875,1.533070185,-23.77,-17.85,96,0
TARM,3/24/04,-23.49749996,0.975289431,-25.84,-21.32,96,0
TARM,3/25/04,-23.36812504,1.922971683,-26.48,-19.67,96,0
TARM,3/26/04,-26.80218744,2.303487128,-30.61,-20.6,96,0
TARM,3/27/04,-23.57697914,4.703189533,-30.83,-17.81,96,0
TARM,3/28/04,-18.95718756,3.472086233,-24.37,-14.02,96,0
TARM,3/29/04,-23.25510424,1.469746131,-25.68,-21.23,96,0
TARM,3/30/04,-26.0402083,1.801373669,-28.64,-21.94,96,0
TARM,3/31/04,-29.46416668,0.563656697,-30.69,-28.62,96,0
TARM,4/1/04,-29.46375012,1.393679916,-30.99,-24.07,96,0
TARM,4/2/04,-17.3508333,2.92352446,-23.8,-14.34,96,0
TARM,4/3/04,-17.87416668,2.944008598,-22.69,-14.27,96,0
TARM,4/4/04,-15.40843753,1.153701024,-17.65,-13.72,96,0
TARM,4/5/04,-19.78947906,1.501579748,-22.48,-16.13,96,0
TARM,4/6/04,-21.51260416,2.316177465,-25.01,-17.65,96,0
TARM,4/7/04,-23.71958331,0.894182244,-25,-21.78,96,0
TARM,4/8/04,-26.24114573,0.835606206,-27.6,-24.44,96,0
TARM,4/9/04,-26.60760421,0.488041725,-27.37,-25.28,96,0
TARM,4/10/04,-26.19958335,0.523747503,-27.37,-25.19,96,0
TARM,4/11/04,-28.39416665,0.925385357,-30.24,-26.75,96,0
TARM,4/12/04,-31.35281243,0.551218156,-32.34,-29.98,96,0
TARM,4/13/04,-29.32416664,1.626047634,-32.03,-26.11,96,0
TARM,4/14/04,-25.83218743,1.000535836,-27.36,-22.27,96,0
TARM,4/15/04,-24.89750004,2.261128295,-27.78,-19.98,96,0
TARM,4/16/04,-17.79562499,0.739799233,-19.7,-16.63,96,0
TARM,4/17/04,-20.10531247,0.845188229,-21.64,-17.94,96,0
TARM,4/18/04,-21.0602083,1.081136818,-23.63,-18.9,96,0
TARM,4/19/04,-21.31656247,0.953603544,-23.01,-19.39,96,0
TARM,4/20/04,-24.63520829,1.82406835,-26.51,-20.33,96,0
TARM,4/21/04,-23.19437504,2.086119971,-26.41,-19.99,96,0
TARM,4/22/04,-17.87937501,0.988664012,-21.41,-15.66,96,0
TARM,4/23/04,-20.66052085,1.829643234,-23.06,-16.11,96,0
TARM,4/24/04,-18.11812495,1.120995184,-20.5,-15.96,96,0
TARM,4/25/04,-16.90500004,1.249720839,-19.67,-14.68,96,0
TARM,4/26/04,-15.26781252,1.595315005,-18.91,-13.07,96,0
TARM,4/27/04,-16.81739582,1.492205088,-20.15,-14.6,96,0
TARM,4/28/04,-20.22947917,1.446240366,-23.39,-18.18,96,0
TARM,4/29/04,-22.88937499,1.370651519,-25.55,-19.19,96,0
TARM,4/30/04,-23.91635414,1.092319755,-25.05,-19.39,96,0
TARM,5/1/04,-27.14447918,1.837832692,-29.65,-24.03,96,0
TARM,5/2/04,-30.89062498,0.878407497,-32.81,-29.39,96,0
TARM,5/3/04,-30.8258333,1.665839793,-33.19,-28.7,96,0
TARM,5/4/04,-29.69458334,0.485943344,-30.56,-28.82,96,0
TARM,5/5/04,-30.54614584,0.997091926,-32.87,-29.35,96,0
TARM,5/6/04,-30.30645825,1.392020121,-33.05,-27.94,96,0
TARM,5/7/04,-28.32604164,0.457884083,-29.65,-27.37,96,0
TARM,5/8/04,-32.3414583,1.338013381,-33.86,-29.06,96,0
TARM,5/9/04,-32.9262498,0.527147772,-34.04,-31.58,96,0
TARM,5/10/04,-30.30947924,2.6419161,-33.2,-24.11,96,0
TARM,5/11/04,-22.32250003,3.283211477,-28.51,-18.75,96,0
TARM,5/12/04,-23.33114596,1.280433225,-25.61,-20.96,96,0
TARM,5/13/04,-23.69812506,2.649426976,-27.43,-19.04,96,0
TARM,5/14/04,-20.52437508,1.687403338,-22.68,-16.06,96,0
TARM,5/15/04,-14.72437501,1.385350294,-17.17,-12.69,96,0
TARM,5/16/04,-16.76739586,2.539346101,-20.97,-11.28,96,0
TARM,5/17/04,-16.06270832,2.805689557,-20.29,-10.24,96,0
TARM,5/18/04,-12.15718751,2.756163175,-18.2,-8.74,96,0
TARM,5/19/04,-21.94791667,2.124569029,-24.56,-18.18,96,0
TARM,5/20/04,-24.63489572,1.155821014,-26.07,-21.86,96,0
TARM,5/21/04,-21.6991667,1.30378039,-23.36,-19.45,96,0
TARM,5/22/04,-23.1019791,1.584631871,-26.91,-20.19,96,0
TARM,5/23/04,-28.39427086,0.703472201,-29.84,-26.85,96,0
TARM,5/24/04,-30.33885415,0.329017307,-31.28,-29.54,96,0
TARM,5/25/04,-28.64229165,1.314606605,-30.56,-26.39,96,0
TARM,5/26/04,-31.38062505,1.083181351,-32.98,-28.56,96,0
TARM,5/27/04,-30.16197926,0.670482383,-31.3,-28.13,96,0
TARM,5/28/04,-26.85687502,1.555804939,-29.7,-24.26,96,0
TARM,5/29/04,-30.78114583,1.460609711,-33.52,-28.77,96,0
TARM,5/30/04,-33.80322917,0.732842208,-35.81,-32.16,96,0
TARM,5/31/04,-35.22437509,0.398908797,-36.02,-33.8,96,0
TARM,6/1/04,-30.16229161,3.236683799,-35.81,-25.42,96,0
TARM,6/2/04,-33.09770832,1.006481747,-34.56,-31.34,96,0
TARM,6/3/04,-29.14854163,0.894123469,-31.24,-27.81,96,0
TARM,6/4/04,-26.63572925,2.414244853,-29.77,-22.98,96,0
TARM,6/5/04,-28.5151041,0.935838532,-30.17,-26.17,96,0
TARM,6/6/04,-27.34666665,1.578590188,-30.35,-26.18,6,90
TARM,6/7/04,,,,,0,96
TARM,6/8/04,,,,,0,96
TARM,6/9/04,,,,,0,96
TARM,6/10/04,,,,,0,96
TARM,6/11/04,,,,,0,96
TARM,6/12/04,,,,,0,96
TARM,6/13/04,,,,,0,96
TARM,6/14/04,,,,,0,96
TARM,6/15/04,,,,,0,96
TARM,6/16/04,,,,,0,96
TARM,6/17/04,,,,,0,96
TARM,6/18/04,,,,,0,96
TARM,6/19/04,,,,,0,96
TARM,6/20/04,,,,,0,96
TARM,6/21/04,,,,,0,96
TARM,6/22/04,,,,,0,96
TARM,6/23/04,,,,,0,96
TARM,6/24/04,,,,,0,96
TARM,6/25/04,,,,,0,96
TARM,6/26/04,,,,,0,96
TARM,6/27/04,,,,,0,96
TARM,6/28/04,,,,,0,96
TARM,6/29/04,,,,,0,96
TARM,6/30/04,,,,,0,96
TARM,7/1/04,,,,,0,96
TARM,7/2/04,,,,,0,96
TARM,7/3/04,,,,,0,96
TARM,7/4/04,,,,,0,96
TARM,7/5/04,,,,,0,96
TARM,7/6/04,,,,,0,96
TARM,7/7/04,,,,,0,96
TARM,7/8/04,,,,,0,96
TARM,7/9/04,,,,,0,96
TARM,7/10/04,,,,,0,96
TARM,7/11/04,,,,,0,96
TARM,7/12/04,,,,,0,96
TARM,7/13/04,,,,,0,96
TARM,7/14/04,,,,,0,96
TARM,7/15/04,,,,,0,96
TARM,7/16/04,,,,,0,96
TARM,7/17/04,,,,,0,96
TARM,7/18/04,,,,,0,96
TARM,7/19/04,,,,,0,96
TARM,7/20/04,,,,,0,96
TARM,7/21/04,,,,,0,96
TARM,7/22/04,,,,,0,96
TARM,7/23/04,,,,,0,96
TARM,7/24/04,,,,,0,96
TARM,7/25/04,,,,,0,96
TARM,7/26/04,,,,,0,96
TARM,7/27/04,,,,,0,96
TARM,7/28/04,,,,,0,96
TARM,7/29/04,,,,,0,96
TARM,7/30/04,,,,,0,96
TARM,7/31/04,,,,,0,96
TARM,8/1/04,,,,,0,96
TARM,8/2/04,,,,,0,96
TARM,8/3/04,,,,,0,96
TARM,8/4/04,,,,,0,96
TARM,8/5/04,,,,,0,96
TARM,8/6/04,,,,,0,96
TARM,8/7/04,,,,,0,96
TARM,8/8/04,,,,,0,96
TARM,8/9/04,,,,,0,96
TARM,8/10/04,,,,,0,96
TARM,8/11/04,,,,,0,96
TARM,8/12/04,,,,,0,96
TARM,8/13/04,,,,,0,96
TARM,8/14/04,,,,,0,96
TARM,8/15/04,,,,,0,96
TARM,8/16/04,,,,,0,96
TARM,8/17/04,,,,,0,96
TARM,8/18/04,,,,,0,96
TARM,8/19/04,,,,,0,96
TARM,8/20/04,,,,,0,96
TARM,8/21/04,,,,,0,96
TARM,8/22/04,,,,,0,96
TARM,8/23/04,,,,,0,96
TARM,8/24/04,,,,,0,96
TARM,8/25/04,,,,,0,96
TARM,8/26/04,,,,,0,96
TARM,8/27/04,,,,,0,96
TARM,8/28/04,,,,,0,96
TARM,8/29/04,,,,,0,96
TARM,8/30/04,,,,,0,96
TARM,8/31/04,,,,,0,96
TARM,9/1/04,,,,,0,96
TARM,9/2/04,,,,,0,96
TARM,9/3/04,,,,,0,96
TARM,9/4/04,,,,,0,84
TARM,9/5/04,,,,,0,96
TARM,9/6/04,,,,,0,96
TARM,9/7/04,,,,,0,96
TARM,9/8/04,,,,,0,96
TARM,9/9/04,,,,,0,96
TARM,9/10/04,,,,,0,96
TARM,9/11/04,,,,,0,96
TARM,9/12/04,,,,,0,96
TARM,9/13/04,,,,,0,96
TARM,9/14/04,,,,,0,96
TARM,9/15/04,,,,,0,96
TARM,9/16/04,-16.92714296,1.57993371,-20.42,-15.72,7,89
TARM,9/17/04,-25.6799999,1.410160864,-27.49,-23.75,14,82
TARM,9/18/04,-27.62888887,1.413126898,-32.73,-26.41,18,78
TARM,9/19/04,-22.35675667,2.177382675,-34.45,-20.31,37,59
TARM,9/20/04,-22.59641021,1.571212301,-30.61,-20.77,39,57
TARM,9/21/04,-26.88157901,1.084739602,-28.4,-23.66,57,39
TARM,9/22/04,-23.49764712,0.555366315,-25.34,-22.84,17,79
TARM,9/23/04,-23.05271181,4.441059876,-28.81,-16.16,59,37
TARM,9/24/04,-28.024375,1.768105012,-29.95,-23.27,96,0
TARM,9/25/04,-24.51989581,6.173808959,-31.66,-15.4,96,0
TARM,9/26/04,-14.28687505,2.087003567,-17.8,-11.29,96,0
TARM,9/27/04,-24.07072924,4.226035648,-28.49,-12.54,96,0
TARM,9/28/04,-24.63343759,3.798821579,-28.62,-18.45,96,0
TARM,9/29/04,-25.99645829,2.597621613,-29.26,-21.22,96,0
TARM,9/30/04,-24.57208337,2.830099179,-28.4,-18.56,96,0
TARM,10/1/04,-24.10302089,3.894859738,-30.42,-17.32,96,0
TARM,10/2/04,-26.98614589,4.296921187,-31.19,-19.86,96,0
TARM,10/3/04,-27.12749998,3.383914293,-31.54,-19.33,96,0
TARM,10/4/04,-24.95968749,3.680644949,-29.18,-18.51,96,0
TARM,10/5/04,-19.55989586,6.306441443,-27.98,-11.72,96,0
TARM,10/6/04,-16.03697921,2.561929866,-22.16,-12.7,96,0
TARM,10/7/04,-14.14114582,3.953452066,-22.14,-7.96,96,0
TARM,10/8/04,-20.49416665,2.101898188,-23.78,-16.65,96,0
TARM,10/9/04,-16.04093752,2.79036543,-21.4,-12.41,96,0
TARM,10/10/04,-13.37302081,1.733162065,-15.99,-9.97,96,0
TARM,10/11/04,-11.17260421,2.390093711,-16.17,-5.94,96,0
TARM,10/12/04,-12.24916666,2.020099309,-15.38,-8.6,96,0
TARM,10/13/04,-12.73468752,2.507637999,-16.22,-7.02,96,0
TARM,10/14/04,-14.01302077,3.894263306,-19.9,-8.35,96,0
TARM,10/15/04,-15.82489585,4.441750466,-21.19,-9.54,96,0
TARM,10/16/04,-16.4973958,4.769510174,-23.01,-8.6,96,0
TARM,10/17/04,-16.51489578,4.79858239,-23.22,-8.3,96,0
TARM,10/18/04,-14.08927085,2.744109565,-18.49,-9.79,96,0
TARM,10/19/04,-15.05770832,2.617031006,-18.93,-10.71,96,0
TARM,10/20/04,-13.17531246,2.455404287,-16.56,-9.08,96,0
TARM,10/21/04,-11.53104166,1.820421311,-14.21,-8.09,96,0
TARM,10/22/04,-12.84635417,3.854837358,-18.23,-2.96,96,0
TARM,10/23/04,-13.88291667,4.177768183,-19.43,-6.12,96,0
TARM,10/24/04,-14.3965625,4.485347873,-20.57,-6.94,96,0
TARM,10/25/04,-15.01093755,4.239422303,-21.24,-7.55,96,0
TARM,10/26/04,-13.77083328,3.520053713,-18.55,-5.13,96,0
TARM,10/27/04,-12.92968741,5.902405593,-20.99,-4.55,96,0
TARM,10/28/04,-14.15562502,6.324881474,-22.65,-5.14,96,0
TARM,10/29/04,-15.47604162,3.763526432,-20.01,-8.01,96,0
TARM,10/30/04,-13.93104165,4.710636013,-20.9,-5.33,96,0
TARM,10/31/04,-15.56156255,4.088213421,-21.85,-10.26,96,0
TARM,11/1/04,-12.91166666,3.562587985,-18.01,-5.87,96,0
TARM,11/2/04,-11.14729163,2.340961275,-14.43,-7.82,96,0
TARM,11/3/04,-10.98135418,3.292980613,-17.21,-5.1,96,0
TARM,11/4/04,-10.51281251,2.777263962,-14.12,-4.15,96,0
TARM,11/5/04,-10.59114583,2.623399158,-14.35,-6.43,96,0
TARM,11/6/04,-11.39572916,2.228776704,-14.69,-7.57,96,0
TARM,11/7/04,-10.72437499,2.168958399,-14.41,-6.27,96,0
TARM,11/8/04,-9.985729093,1.928875156,-13.46,-6.62,96,0
TARM,11/9/04,-10.40333333,2.747872913,-14.57,-6.52,96,0
TARM,11/10/04,-11.09281249,2.964960869,-15.77,-6.26,96,0
TARM,11/11/04,-7.599895835,3.081295525,-12.09,-2.47,96,0
TARM,11/12/04,-7.326354188,2.527096166,-10.88,-2.95,96,0
TARM,11/13/04,-7.238541707,2.79262677,-12.24,-2.63,96,0
TARM,11/14/04,-4.779791671,2.531907535,-8.93,-0.68,96,0
TARM,11/15/04,-1.698541674,2.166181685,-4.53,2.84,96,0
TARM,11/16/04,-2.993645812,2.77680395,-6.97,3.28,96,0
TARM,11/17/04,-3.486770853,1.699270754,-6.66,-0.38,96,0
TARM,11/18/04,-2.945833337,3.129370442,-8.41,2.27,96,0
TARM,11/19/04,-1.992604187,3.874430709,-8.74,2.51,96,0
TARM,11/20/04,-0.979895824,2.99875113,-6.26,2.68,96,0
TARM,11/21/04,-2.743124994,1.855089338,-7.11,1.75,96,0
TARM,11/22/04,-3.944583343,2.293147205,-7.78,0.12,96,0
TARM,11/23/04,-2.663020835,3.630504716,-10.38,5.8,96,0
TARM,11/24/04,-1.608020813,7.847379341,-13.73,12.53,96,0
TARM,11/25/04,-0.79593749,4.907219326,-7.15,9.05,96,0
TARM,11/26/04,-1.776145823,4.034113847,-8.65,5.26,96,0
TARM,11/27/04,-2.598437512,4.062277649,-9.77,2.72,96,0
TARM,11/28/04,-2.366874984,2.727266708,-7.47,1.37,96,0
TARM,11/29/04,-3.105937507,2.418530043,-7.28,0.76,96,0
TARM,11/30/04,-4.030625001,2.018748871,-8.31,-1.04,96,0
TARM,12/1/04,-1.109895831,2.296397411,-4.75,2.78,96,0
TARM,12/2/04,-2.010729164,2.507804332,-6.83,2.35,96,0
TARM,12/3/04,-0.861041677,2.304084944,-4.88,2.6,96,0
TARM,12/4/04,-0.400416667,2.558762003,-5.5,2.4,96,0
TARM,12/5/04,0.339687502,2.099544531,-3.86,2.85,96,0
TARM,12/6/04,-0.0996875,2.318911478,-4.39,3.17,96,0
TARM,12/7/04,1.403541665,1.659039659,-1.63,3.35,96,0
TARM,12/8/04,1.261354174,1.45485223,-1.57,3.06,96,0
TARM,12/9/04,1.265625005,1.669383637,-2.01,3.4,96,0
TARM,12/10/04,0.94187499,1.682160457,-2.53,3.32,96,0
TARM,12/11/04,-0.421250004,2.124006266,-4.01,3.08,96,0
TARM,12/12/04,-0.45760417,1.908578825,-2.8,3.63,96,0
TARM,12/13/04,-0.373020828,1.643830655,-2.79,3.39,96,0
TARM,12/14/04,0.926041682,2.858751847,-2.3,10.95,96,0
TARM,12/15/04,0.976979161,3.721875326,-3.57,12.83,96,0
TARM,12/16/04,0.622500006,2.748068418,-2.7,5.45,96,0
TARM,12/17/04,0.098854167,2.003666041,-2.68,3.59,96,0
TARM,12/18/04,-0.443854163,2.52543664,-4.69,4.2,96,0
TARM,12/19/04,-1.251562502,1.243592703,-3.02,2.64,96,0
TARM,12/20/04,-0.025624985,4.5745706,-9.03,6.94,96,0
TARM,12/21/04,0.19833333,2.690664822,-3.85,4.19,96,0
TARM,12/22/04,-2.134479158,2.036787895,-6.47,1.22,96,0
TARM,12/23/04,0.568020837,3.36487792,-5.87,4.49,96,0
TARM,12/24/04,1.220520827,2.376203217,-2.4,5.62,96,0
TARM,12/25/04,0.129166655,2.355937031,-3.4,4.93,96,0
TARM,12/26/04,-1.186770831,3.27549609,-6.74,4.44,96,0
TARM,12/27/04,-0.493124997,1.1053852,-2.44,1.85,96,0
TARM,12/28/04,1.484687504,2.65692183,-2.45,6.48,96,0
TARM,12/29/04,2.524062507,4.126626648,-3.33,14.83,96,0
TARM,12/30/04,1.840729156,3.193147982,-1.8,10.94,96,0
TARM,12/31/04,1.008020834,2.510093575,-1.77,7.38,96,0
TARM,1/1/05,3.897916634,4.502496574,-2.39,11.63,96,0
TARM,1/2/05,1.308750005,4.218998458,-5.32,8.34,96,0
TARM,1/3/05,2.824583354,5.620171757,-6.71,11.88,96,0
TARM,1/4/05,1.955104164,2.439562498,-3.08,6.23,96,0
TARM,1/5/05,1.756979167,1.045186581,0.2,4.28,96,0
TARM,1/6/05,1.055208335,1.290428717,-1.2,3.79,96,0
TARM,1/7/05,1.83052084,0.968866263,-0.05,3.7,96,0
TARM,1/8/05,1.001250001,0.802007023,-0.42,3.65,96,0
TARM,1/9/05,0.533020833,1.560078357,-1.68,3.8,96,0
TARM,1/10/05,1.0509375,1.981951764,-1.44,4.68,96,0
TARM,1/11/05,1.470208335,2.161190208,-1.42,5.1,96,0
TARM,1/12/05,0.981562499,1.266485669,-0.83,5.58,96,0
TARM,1/13/05,1.783125002,3.050919908,-2.8,8.29,96,0
TARM,1/14/05,-0.191874997,0.750957719,-1.8,1.42,96,0
TARM,1/15/05,1.664687493,1.942848124,-2.18,4.26,96,0
TARM,1/16/05,0.363541662,2.237417659,-4.39,3.68,96,0
TARM,1/17/05,0.15114584,3.994186243,-6.5,4.92,96,0
TARM,1/18/05,1.156458332,2.443765419,-3.81,4.78,96,0
TARM,1/19/05,-0.077395823,2.800721787,-4.72,3.85,96,0
TARM,1/20/05,0.786979175,3.664636174,-4.54,5.66,96,0
TARM,1/21/05,-0.12343749,4.154998202,-6.76,4.7,96,0
TARM,1/22/05,-0.16479166,5.109145766,-7.92,5.73,96,0
TARM,1/23/05,-1.799166668,2.679849813,-6.28,5.29,96,0
TARM,1/24/05,-1.89635416,2.23723331,-4.03,2.44,96,0
TARM,1/25/05,-2.270833345,1.893072521,-5.01,1.24,96,0
TARM,1/26/05,-1.767812494,2.830971645,-5.2,5.87,96,0
TARM,1/27/05,-1.680937495,4.342284641,-7.68,5.82,96,0
TARM,1/28/05,-1.931979174,4.829825223,-9.01,5.04,96,0
TARM,1/29/05,-2.313333335,4.206781414,-8.79,4.71,96,0
TARM,1/30/05,-4.248749999,4.09853972,-10.02,2.87,96,0
TARM,1/31/05,-3.335729176,4.919031308,-10.75,4.22,96,0
TARM,2/1/05,-2.521666667,5.506449731,-10.68,4.75,96,0
TARM,2/2/05,-2.73218748,4.678360292,-9.61,4.55,96,0
TARM,2/3/05,-3.557708331,3.262212838,-7.43,3.97,96,0
TARM,2/4/05,-2.611354144,4.903210887,-11.42,5.13,96,0
TARM,2/5/05,-4.091979167,4.681135624,-11.07,2.33,96,0
TARM,2/6/05,-2.100104161,3.550372403,-6.67,3.63,96,0
TARM,2/7/05,-5.551145849,1.900020988,-8.91,-2.38,96,0
TARM,2/8/05,-3.586666662,3.587035317,-7.57,5.7,96,0
TARM,2/9/05,-5.272395868,3.263758846,-10.31,0.45,96,0
TARM,2/10/05,-6.364791664,3.676103175,-11.92,-1.02,96,0
TARM,2/11/05,-8.574166661,3.390276042,-13.14,-3.73,96,0
TARM,2/12/05,-6.962916709,4.883343998,-13.72,0.17,96,0
TARM,2/13/05,-5.929166663,4.215572298,-11.69,0.5,96,0
TARM,2/14/05,-3.073958354,3.816002194,-8.39,2.42,96,0
TARM,2/15/05,-4.035833334,2.876069931,-9.5,-0.25,96,0
TARM,2/16/05,-6.585312483,1.86765032,-9.04,-2.81,96,0
TARM,2/17/05,-5.630000016,3.205409921,-10.12,-0.2,96,0
TARM,2/18/05,-8.865312482,1.442772866,-11.38,-6.55,96,0
TARM,2/19/05,-8.404687466,3.400118242,-12.21,0.21,96,0
TARM,2/20/05,-8.693645799,3.887605146,-14.24,-1.14,96,0
TARM,2/21/05,-9.473124959,2.574897971,-13.04,-3.11,96,0
TARM,2/22/05,-9.453854161,3.28738305,-17.84,-2.64,96,0
TARM,2/23/05,-11.64708332,6.894391612,-20.05,0.12,96,0
TARM,2/24/05,-13.55416663,4.903904661,-21.86,-3.61,96,0
TARM,2/25/05,-12.58385425,6.419796303,-22.45,-4.27,96,0
TARM,2/26/05,-9.184895838,5.275069086,-16.48,-0.33,96,0
TARM,2/27/05,-8.591562513,4.297953833,-14.91,-1.88,96,0
TARM,2/28/05,-10.66239583,5.386445122,-16.68,-1.15,96,0
TARM,3/1/05,-11.70010424,4.475900795,-17.32,-5.15,96,0
TARM,3/2/05,-11.7626042,2.317597778,-14.9,-6.92,96,0
TARM,3/3/05,-12.09364589,4.605546622,-18.36,-3.63,96,0
TARM,3/4/05,-13.66437498,4.668066168,-19.28,-5.14,96,0
TARM,3/5/05,-13.41260416,3.264307818,-18.38,-3.69,96,0
TARM,3/6/05,-16.98333329,3.023822396,-21.55,-8.6,96,0
TARM,3/7/05,-17.87572914,3.479616063,-22.28,-10.6,96,0
TARM,3/8/05,-17.03510413,5.08797358,-23.06,-8.86,96,0
TARM,3/9/05,-18.20135417,3.94772299,-23.05,-12.46,96,0
TARM,3/10/05,-17.16041659,3.769561666,-21.29,-9.08,96,0
TARM,3/11/05,-16.27062502,3.594326222,-20.07,-7.98,96,0
TARM,3/12/05,-15.13187501,3.745037517,-20.12,-8.71,96,0
TARM,3/13/05,-17.60697927,3.278316696,-22.09,-9.83,96,0
TARM,3/14/05,-18.59302083,2.802597758,-22.09,-13.59,96,0
TARM,3/15/05,-18.69187496,2.696990642,-22.14,-11.88,96,0
TARM,3/16/05,-17.74270833,3.544338512,-22.3,-10.48,96,0
TARM,3/17/05,-20.61364588,2.72054649,-23.88,-15.37,96,0
TARM,3/18/05,-20.75822919,2.434797724,-24.1,-14.48,96,0
TARM,3/19/05,-20.16979164,2.479718554,-24.01,-15.4,96,0
TARM,3/20/05,-21.48999997,2.855883627,-25.91,-16.08,96,0
TARM,3/21/05,-16.06031251,2.477680385,-19.18,-11.24,96,0
TARM,3/22/05,-11.66343754,2.284205616,-16.43,-8.93,96,0
TARM,3/23/05,-14.90083337,1.201121103,-17.17,-12.38,96,0
TARM,3/24/05,-17.08927086,1.62197485,-20,-14.36,96,0
TARM,3/25/05,-17.58624999,2.03274724,-21.82,-13.83,96,0
TARM,3/26/05,-23.02291658,0.717268085,-24.49,-20.78,96,0
TARM,3/27/05,-23.12124995,1.553399188,-25.46,-20.19,96,0
TARM,3/28/05,-20.52072924,1.309194357,-23.48,-18.37,96,0
TARM,3/29/05,-22.35614592,1.138228872,-24.31,-19.7,96,0
TARM,3/30/05,-19.35572924,1.281969435,-20.87,-16.57,96,0
TARM,3/31/05,-16.9336458,1.42838675,-19.38,-14.53,96,0
TARM,4/1/05,-21.21864585,1.921529861,-24.18,-16.98,96,0
TARM,4/2/05,-21.27281243,1.378130463,-23.28,-19.07,96,0
TARM,4/3/05,-23.33947919,1.071908643,-25.32,-21.42,96,0
TARM,4/4/05,-20.89281259,2.775013628,-25.41,-17.15,96,0
TARM,4/5/05,-19.07031245,2.670822289,-25.44,-14.94,96,0
TARM,4/6/05,-16.19927072,1.062550263,-18.45,-14.39,96,0
TARM,4/7/05,-15.56031247,1.350048309,-20.04,-13.58,96,0
TARM,4/8/05,-21.97885416,0.983155874,-23.48,-19.6,96,0
TARM,4/9/05,-24.35583329,0.888135478,-25.78,-22.37,96,0
TARM,4/10/05,-18.69645843,3.508080039,-23.87,-13.63,96,0
TARM,4/11/05,-22.86020839,1.147823492,-24.97,-20.06,96,0
TARM,4/12/05,-21.19802082,1.441539765,-24.15,-18.61,96,0
TARM,4/13/05,-25.60572912,1.702163811,-27.81,-21.19,96,0
TARM,4/14/05,-17.65656252,2.597854169,-21.79,-13.66,96,0
TARM,4/15/05,-17.75854166,2.261988805,-21.35,-13.46,96,0
TARM,4/16/05,-24.43343753,1.723101763,-27.2,-20.6,96,0
TARM,4/17/05,-27.19072916,0.79312863,-28.23,-25.29,96,0
TARM,4/18/05,-29.02854166,1.505737814,-31.74,-26.5,96,0
TARM,4/19/05,-32.59979173,0.351510973,-33.65,-31.72,96,0
TARM,4/20/05,-32.91718755,0.372292461,-33.49,-31.57,96,0
TARM,4/21/05,-32.99604154,0.381229425,-33.79,-32.23,96,0
TARM,4/22/05,-29.20947923,1.736211429,-32.53,-27.24,96,0
TARM,4/23/05,-27.19708331,0.868254031,-28.42,-25.1,96,0
TARM,4/24/05,-29.28302083,1.691024132,-31.85,-24.55,96,0
TARM,4/25/05,-26.05229161,4.034309597,-31.58,-20.14,96,0
TARM,4/26/05,-20.54885423,2.300441038,-25.29,-17.89,96,0
TARM,4/27/05,-26.77218743,1.627744397,-29.16,-23.6,96,0
TARM,4/28/05,-24.99458329,0.776958833,-26.86,-23.58,96,0
TARM,4/29/05,-27.24177072,2.07692743,-30.16,-23.6,96,0
TARM,4/30/05,-26.57218748,3.663707182,-30.72,-20.19,96,0
TARM,5/1/05,-24.00739584,2.856913845,-27.96,-18.77,96,0
TARM,5/2/05,-19.06593747,2.433203798,-24.21,-14.51,96,0
TARM,5/3/05,-15.32354172,2.078674689,-21.79,-12.29,96,0
TARM,5/4/05,-25.21927085,1.595379097,-27.46,-22.19,96,0
TARM,5/5/05,-26.6861458,1.741692127,-28.16,-21.64,96,0
TARM,5/6/05,-19.00822915,3.034899411,-22.46,-12.34,96,0
TARM,5/7/05,-14.125625,0.622209602,-16.06,-12.58,96,0
TARM,5/8/05,-19.45781244,1.855891998,-22.6,-15.8,96,0
TARM,5/9/05,-16.03750003,1.40321139,-19.7,-13.93,96,0
TARM,5/10/05,-14.35343747,0.616432554,-15.7,-13.09,96,0
TARM,5/11/05,-16.414375,2.13535834,-20.57,-13.83,96,0
TARM,5/12/05,-19.2378125,0.737677969,-20.68,-18.19,96,0
TARM,5/13/05,-18.22093745,1.333834215,-20.82,-16,96,0
TARM,5/14/05,-23.65479165,0.901644069,-25.17,-20.97,96,0
TARM,5/15/05,-26.16104172,1.562166189,-28.69,-23.28,96,0
TARM,5/16/05,-21.37520838,1.702604652,-25.3,-19.04,96,0
TARM,5/17/05,-18.61666673,1.590552705,-22.56,-15.6,96,0
TARM,5/18/05,-13.70906249,2.424159604,-18.75,-10.05,96,0
TARM,5/19/05,-16.74572914,2.97379175,-21.07,-10.61,96,0
TARM,5/20/05,-23.33531253,0.710673459,-24.52,-21.22,96,0
TARM,5/21/05,-21.04458334,2.39856488,-25.18,-16.94,96,0